Location: Unspecified
(0.0000°N, 0.0000°E)
Time: 19:26:40
(UTC+00:00)

THORAD DELTA 1 DEB - Pass Details

Date: 16 February 2026
Orbit: 1451 x 1738 km, 101.5° (Epoch: 9 March)

Event Time Altitude Azimuth Distance (km) Brightness Sun altitude
Rises 22:03:11 0° 199° (SSW) 4,726 ? -55.4°
Reaches altitude 10° 22:07:36 10° 219° (SW) 3,690 ? -56.4°
Maximum altitude 22:12:12 16° 252° (WSW) 3,210 ? -57.4°
Drops below altitude 10° 22:16:44 10° 285° (WNW) 3,601 ? -58.5°
Sets 22:21:01 0° 306° (NW) 4,553 ? -59.5°
